Погода в Берёзовском

Россия / Свердловская область     56˚54′36″N   60˚47′53″E
темп.,
°C
ветер,
м/с
пор.,
м/с
влажн.,
%
обл.,
%
осадки,
мм/ч
давл.,
гПа
погр.,
м
17 января, вс
вс1723:00−9˚зюз4138996 0.2 1003747
02:00−12˚зюз3129192 0.0 1004694
05:00−14˚ююз369396 0.0 1004136
08:00−13˚ююз4129186 0.0 1002379
11:00−10˚ююз4119093 0.0 1000843
14:00−8˚зюз51085100 0.1 10001255
17:00−13˚з4128696 0.3 1003754
20:00−15˚з51388100 0.0 1006717
18 января, пн
пн1823:00−16˚з41390100 0.0 1010526
02:00−18˚з4129199 0.0 1013449
05:00−19˚з4129390 0.0 1014348
08:00−21˚з4119460 0.0 1016288
11:00−21˚з4109338 0.0 1017268
14:00−18˚з479010 0.0 1017309
17:00−20˚зюз37955 0.0 1017160
20:00−22˚з49930 0.0 1017257
19 января, вт
вт1923:00−23˚зюз37940 0.0 1017183
02:00−23˚зсз37940 0.0 1018171
05:00−24˚зсз229339 0.0 101832
08:00−24˚зсз119397 0.0 101820
11:00−22˚ссв129399 0.0 1019105
14:00−21˚св2393100 0.0 1018232
17:00−21˚всв2397100 0.0 1018123
20:00−23˚всв2698100 0.0 1018194
20 января, ср
ср2023:00−23˚всв2698100 0.0 1019237
02:00−23˚всв3596100 0.0 1019253
05:00−23˚св3594100 0.1 1019247
08:00−24˚св3696100 0.3 1020239
11:00−24˚св2396100 0.6 1021228
14:00−22˚св2395100 0.1 1021243
17:00−23˚всв1298100 0.3 102167
20:00−25˚всв1298100 0.0 102221
21 января, чт
чт2123:00−26˚вюв1198100 0.0 102219
02:00−26˚ююв1298100 0.0 102119
05:00−25˚ю229999 0.1 102131
08:00−24˚ююз129895 0.1 102041
11:00−22˚юз249597 0.1 1019189
14:00−20˚зюз2592100 0.0 1017453
17:00−21˚зюз2598100 0.1 1016187
20:00−22˚з2797100 0.1 1016297